Fallon NAS, NV

10:36 AM PDT on May 23, 2018 (GMT -0700)
Fallon Naval Air Station

Weather History for KNFL - December, 2011

Change the Weather History Date:

Monday, December 5, 2011

  Actual Average Record
Temperature  
Mean Temperature 26 °F -  
Max Temperature 39 °F 49 °F 66 °F (1958)
Min Temperature 14 °F 20 °F -1 °F (1992)
Degree Days  
Heating Degree Days 38    
Moisture  
Dew Point 9 °F    
Average Humidity 54    
Maximum Humidity 77    
Minimum Humidity 33    
Precipitation  
Precipitation 0.00 in - - ()
Sea Level Pressure  
Sea Level Pressure 30.28 in    
Wind  
Wind Speed 3 mph (NW)    
Max Wind Speed 8 mph    
Max Gust Speed -    
Visibility 10 miles    
Events      
Averages and records for this station are not official NWS values.
T = Trace of Precipitation, MM = Missing Value Source: NWS Daily Summary

Daily Weather History Graph

Daily Weather History Graph

Search for Another Location

Airport or City:

Astronomy

Dec. 05, 2011 Rise Set
Actual Time 6:59 AM PST 4:31 PM PST
Civil Twilight 6:29 AM PST 5:01 PM PST
Nautical Twilight 5:56 AM PST 5:34 PM PST
Astronomical Twilight 5:23 AM PST 6:06 PM PST
Moon 1:30 PM PST (12/5) 2:26 AM PST (12/5)
Length of Visible Light 10h 31m
Length of Day
9h 31m
Waxing Gibbous, 80% of the Moon is Illuminated
Dec 5
Waxing Gibbous
Dec 10
Full
Dec 17
Last Quarter
Dec 24
New
Dec 31
First Quarter

Hourly Weather History & Observations

Time (PST) Temp. Windchill Dew Point Humidity Pressure Visibility Wind Dir Wind Speed Gust Speed Precip Events Conditions
12:56 AM 21.0 °F - 7.0 °F 55% 30.24 in 10.0 mi Calm Calm - N/A   Clear
1:56 AM 19.0 °F - 7.0 °F 59% 30.24 in 10.0 mi Calm Calm - N/A   Clear
2:56 AM 18.0 °F 9.8 °F 7.0 °F 62% 30.25 in 10.0 mi NW 5.8 mph - N/A   Clear
3:56 AM 19.0 °F 9.0 °F 9.0 °F 65% 30.25 in 10.0 mi North 8.1 mph - N/A   Clear
4:56 AM 17.1 °F 6.6 °F 9.0 °F 71% 30.26 in 10.0 mi NNW 8.1 mph - N/A   Clear
5:56 AM 19.0 °F 13.9 °F 10.0 °F 68% 30.27 in 10.0 mi NW 3.5 mph - N/A   Clear
6:20 AM 17.6 °F - 8.6 °F 68% 30.41 in 10.0 mi Calm Calm - N/A   Clear
6:56 AM 14.0 °F 8.2 °F 8.1 °F 77% 30.28 in 10.0 mi SW 3.5 mph - N/A   Scattered Clouds
7:56 AM 19.0 °F 12.3 °F 9.0 °F 65% 30.30 in 10.0 mi ESE 4.6 mph - N/A   Partly Cloudy
8:56 AM 27.0 °F 23.0 °F 12.9 °F 56% 30.31 in 10.0 mi SE 3.5 mph - N/A   Partly Cloudy
9:01 AM - - - N/A% - - North - - N/A   Unknown
9:56 AM 30.9 °F 27.5 °F 14.0 °F 50% 30.31 in 10.0 mi South 3.5 mph - N/A   Partly Cloudy
10:56 AM 35.1 °F 32.2 °F 14.0 °F 42% 30.30 in 10.0 mi NW 3.5 mph - N/A   Partly Cloudy
11:56 AM 37.0 °F 32.4 °F 14.0 °F 39% 30.29 in 10.0 mi Variable 5.8 mph - N/A   Partly Cloudy
12:56 PM 37.0 °F - 14.0 °F 39% 30.27 in 10.0 mi Calm Calm - N/A   Partly Cloudy
1:56 PM 37.9 °F 34.4 °F 12.9 °F 36% 30.26 in 10.0 mi WNW 4.6 mph - N/A   Partly Cloudy
2:56 PM 39.0 °F 35.7 °F 12.0 °F 33% 30.25 in 10.0 mi North 4.6 mph - N/A   Clear
3:56 PM 37.0 °F 34.5 °F 10.9 °F 34% 30.25 in 10.0 mi NNW 3.5 mph - N/A   Clear
4:56 PM 30.0 °F 24.1 °F 9.0 °F 41% 30.26 in 10.0 mi NNE 5.8 mph - N/A   Clear
5:56 PM 26.1 °F 21.9 °F 8.1 °F 47% 30.26 in 10.0 mi NE 3.5 mph - N/A   Clear
6:56 PM 27.0 °F - 10.0 °F 49% 30.27 in 10.0 mi Calm Calm - N/A   Clear
7:56 PM 18.0 °F - 3.9 °F 54% 30.27 in 10.0 mi Calm Calm - N/A   Clear
8:56 PM 19.0 °F 13.9 °F 5.0 °F 54% 30.29 in 10.0 mi WSW 3.5 mph - N/A   Clear
9:56 PM 17.1 °F 6.6 °F 5.0 °F 59% 30.29 in 10.0 mi South 8.1 mph - N/A   Clear
10:56 PM 16.0 °F 7.4 °F 3.9 °F 59% 30.29 in 10.0 mi South 5.8 mph - N/A   Clear
11:56 PM 16.0 °F - 5.0 °F 62% 30.30 in 10.0 mi Calm Calm - N/A   Clear